Flag for Canada Weather past 2 weeks in Quispamsis, New Brunswick, Canada

Now
32 °F

Passing clouds.


Feels Like: 27 °F
Forecast: 38 / 51 °F
Wind: 5 mph from South

Location: Saint John


UV Index: 3 (Moderate)

Visibility: 15 mi


Pressure: 30.34 "Hg

Humidity: 87%

Dew point: 28 °F

Location of QuispamsisLocation

Historic Weather in Quispamsis

°F

Quispamsis temperature yesterday

Maximum temperature yesterday: 50 °F (at 4:00 PM)
Minimum temperature yesterday: 30 °F (at 7:00 AM)
Average temperature yesterday: 40 °F

Past Weeks' High & Low Weather Summary

 TemperatureHumidityPressure
High59 °F (Apr 15, 4:00 PM)100% (Apr 8, 6:49 PM)30.85 "Hg (Apr 8, 6:49 PM)
Low21 °F (Apr 17, 5:00 AM)18% (Apr 18, 2:00 PM)29.28 "Hg (Apr 9, 1:45 AM)
Average40 °F69%30.07 "Hg
* Reported Midnight between Apr 5 and Apr 6 — Midnight between Apr 20 and Apr 21, Quispamsis, Weather by CustomWeather, © 2014

Note: Actual official high and low records may vary slightly from our data, if they occured in-between our weather recording intervals... More about our weather records

Advertising

Historic Weather Conditions — Data for Previous 24 hours

 ConditionsComfort  
Time TempWeatherWind HumidityBarometerVisibility
12:00 AM
Apr 21
32 °FPassing clouds.5 mph87%30.34 "Hg15 mi
11:00 PM
Apr 20
30 °FPassing clouds.6 mph93%30.36 "Hg15 mi
10:00 PM34 °FPassing clouds.3 mph81%30.37 "Hg15 mi
9:00 PM36 °FScattered clouds.6 mph75%30.38 "Hg15 mi
8:00 PM39 °FPartly sunny.9 mph61%30.38 "Hg15 mi
7:00 PM43 °FBroken clouds.8 mph39%30.39 "Hg15 mi
6:00 PM45 °FPartly sunny.12 mph39%30.39 "Hg15 mi
5:00 PM48 °FPartly sunny.10 mph37%30.37 "Hg15 mi
4:00 PM50 °FPartly sunny.8 mph28%30.38 "Hg15 mi
3:00 PM48 °FPassing clouds.10 mph34%30.40 "Hg15 mi
2:00 PM48 °FPassing clouds.13 mph27%30.42 "Hg15 mi
1:00 PM48 °FPassing clouds.10 mph29%30.45 "Hg15 mi
12:00 PM45 °FPassing clouds.9 mph39%30.47 "Hg15 mi
11:00 AM45 °FScattered clouds.10 mph39%30.47 "Hg15 mi
10:00 AM39 °FScattered clouds.9 mph56%30.47 "Hg15 mi
9:00 AM37 °FPassing clouds.14 mph65%30.45 "Hg15 mi
8:00 AM34 °FPassing clouds.6 mph81%30.44 "Hg15 mi
7:00 AM30 °FPassing clouds.6 mph86%30.40 "Hg15 mi
6:00 AM32 °FPassing clouds.7 mph80%30.37 "Hg15 mi
5:00 AM34 °FPassing clouds.10 mph81%30.34 "Hg15 mi
4:00 AM36 °FOvercast.9 mph75%30.32 "Hg15 mi
3:00 AM37 °FOvercast.20 mph70%30.28 "Hg15 mi
2:00 AM37 °FOvercast.23 mph75%30.27 "Hg15 mi
1:00 AM37 °FPartly cloudy.17 mph75%30.24 "Hg15 mi
Weather by CustomWeather, © 2014

See weather overview